Princeton, MN

5:59 PM CST on January 17, 2017 (GMT -0600)
Princeton Municipal

Weather History for KPNM - October, 2013

Change the Weather History Date:

Sunday, October 13, 2013

  Actual Average Record
Temperature  
Mean Temperature 46 °F -  
Max Temperature 60 °F 56 °F 69 °F (2000)
Min Temperature 32 °F 34 °F 28 °F (2002)
Degree Days  
Heating Degree Days 19    
Moisture  
Dew Point 36 °F    
Average Humidity 74    
Maximum Humidity 100    
Minimum Humidity 38    
Precipitation  
Precipitation 0.00 in - - ()
Sea Level Pressure  
Sea Level Pressure 30.35 in    
Wind  
Wind Speed 2 mph (West)    
Max Wind Speed 12 mph    
Max Gust Speed 16 mph    
Visibility 10 miles    
Events Fog    
Averages and records for this station are not official NWS values.
T = Trace of Precipitation, MM = Missing Value Source: NWS Daily Summary

Daily Weather History Graph

Daily Weather History Graph

Search for Another Location

Airport or City:

Trip Planner

Search our weather history database for the weather conditions in past years. The results will help you decide how hot, cold, wet, or windy it might be!

Date:

Astronomy

Oct. 13, 2013 Rise Set
Actual Time 7:28 AM CDT 6:31 PM CDT
Civil Twilight 6:58 AM CDT 7:01 PM CDT
Nautical Twilight 6:24 AM CDT 7:35 PM CDT
Astronomical Twilight 5:49 AM CDT 8:10 PM CDT
Moon 3:37 PM CDT (10/13) 1:23 AM CDT (10/13)
Length of Visible Light 12h 03m
Length of Day
11h 03m
Waxing Gibbous, 69% of the Moon is Illuminated
Oct 13
Waxing Gibbous
Oct 18
Full
Oct 26
Last Quarter
Nov 3
New
Nov 9
First Quarter

Hourly Weather History & Observations

Time (CDT) Temp. Windchill Dew Point Humidity Pressure Visibility Wind Dir Wind Speed Gust Speed Precip Events Conditions
12:13 AM 44.6 °F 41.4 °F 39.2 °F 81% 30.16 in 10.0 mi West 5.8 mph - N/A   Clear
12:33 AM 42.8 °F 40.1 °F 39.2 °F 87% 30.18 in 10.0 mi West 4.6 mph - N/A   Clear
12:53 AM 42.8 °F 40.1 °F 39.2 °F 87% 30.19 in 10.0 mi WSW 4.6 mph - N/A   Clear
1:13 AM 42.8 °F 41.1 °F 37.4 °F 81% 30.20 in 10.0 mi WSW 3.5 mph - N/A   Clear
1:33 AM 41.0 °F 39.0 °F 37.4 °F 87% 30.21 in 10.0 mi SW 3.5 mph - N/A   Clear
1:53 AM 41.0 °F - 37.4 °F 87% 30.22 in 7.0 mi Calm Calm - N/A   Clear
2:13 AM 39.2 °F 35.9 °F 37.4 °F 93% 30.24 in 10.0 mi SW 4.6 mph - N/A   Clear
2:33 AM 39.2 °F 35.9 °F 37.4 °F 93% 30.24 in 10.0 mi SW 4.6 mph - N/A   Clear
2:53 AM 39.2 °F 37.0 °F 37.4 °F 93% 30.24 in 10.0 mi WSW 3.5 mph - N/A   Clear
3:13 AM 41.0 °F 37.1 °F 37.4 °F 87% 30.26 in 10.0 mi WSW 5.8 mph - N/A   Clear
3:33 AM 39.2 °F - 35.6 °F 87% 30.26 in 10.0 mi Calm Calm - N/A   Clear
3:53 AM 37.4 °F - 35.6 °F 93% 30.26 in 10.0 mi Calm Calm - N/A   Clear
4:13 AM 37.4 °F - 35.6 °F 93% 30.27 in 10.0 mi Calm Calm - N/A   Clear
4:33 AM 37.4 °F - 33.8 °F 87% 30.28 in 10.0 mi Calm Calm - N/A   Clear
4:53 AM 35.6 °F - 33.8 °F 93% 30.28 in 10.0 mi Calm Calm - N/A   Clear
5:13 AM 33.8 °F - 32.0 °F 93% 30.29 in 10.0 mi Calm Calm - N/A   Clear
5:33 AM 33.8 °F - 32.0 °F 93% 30.30 in 10.0 mi Calm Calm - N/A   Clear
5:53 AM 33.8 °F - 32.0 °F 93% 30.31 in 10.0 mi Calm Calm - N/A   Clear
6:13 AM 33.8 °F - 33.8 °F 100% 30.31 in 10.0 mi Calm Calm - N/A   Clear
6:33 AM 32.0 °F - 30.2 °F 93% 30.33 in 10.0 mi Calm Calm - N/A   Clear
6:53 AM 32.0 °F - 30.2 °F 93% 30.33 in 2.5 mi Calm Calm - N/A   Clear
7:13 AM 33.8 °F - 30.2 °F 87% 30.33 in 0.5 mi Calm Calm - N/A Fog Fog
7:33 AM 32.0 °F - 30.2 °F 93% 30.35 in 10.0 mi Calm Calm - N/A   Clear
7:53 AM 32.0 °F - 30.2 °F 93% 30.36 in 5.0 mi Calm Calm - N/A   Clear
8:13 AM 33.8 °F - 30.2 °F 87% 30.37 in 10.0 mi Calm Calm - N/A   Clear
8:33 AM 35.6 °F - 33.8 °F 93% 30.37 in 10.0 mi Calm Calm - N/A   Clear
8:53 AM 37.4 °F - 37.4 °F 100% 30.38 in 10.0 mi Calm Calm - N/A   Clear
9:13 AM 41.0 °F - 39.2 °F 93% 30.39 in 10.0 mi Calm Calm - N/A   Clear
9:33 AM 42.8 °F - 39.2 °F 87% 30.40 in 10.0 mi Calm Calm - N/A   Clear
9:53 AM 46.4 °F - 39.2 °F 76% 30.40 in 10.0 mi Calm Calm - N/A   Clear
10:13 AM 46.4 °F - 39.2 °F 76% 30.41 in 10.0 mi Calm Calm - N/A   Clear
10:33 AM 48.2 °F - 42.8 °F 82% 30.41 in 10.0 mi Calm Calm - N/A   Clear
10:53 AM 51.8 °F - 41.0 °F 67% 30.41 in 10.0 mi Calm Calm - N/A   Clear
11:13 AM 53.6 °F - 39.2 °F 58% 30.42 in 10.0 mi Calm Calm - N/A   Clear
11:33 AM 53.6 °F - 39.2 °F 58% 30.43 in 10.0 mi SW 3.5 mph - N/A   Clear
11:53 AM 55.4 °F - 39.2 °F 54% 30.43 in 10.0 mi WSW 6.9 mph - N/A   Clear
12:13 PM 57.2 °F - 37.4 °F 48% 30.42 in 10.0 mi West 4.6 mph - N/A   Clear
12:33 PM 57.2 °F - 35.6 °F 44% 30.41 in 10.0 mi WNW 11.5 mph - N/A   Clear
12:53 PM 57.2 °F - 35.6 °F 44% 30.41 in 10.0 mi WNW 3.5 mph 16.1 mph N/A   Clear
1:13 PM 57.2 °F - 35.6 °F 44% 30.40 in 10.0 mi WSW 6.9 mph - N/A   Clear
1:33 PM 57.2 °F - 35.6 °F 44% 30.40 in 10.0 mi West 4.6 mph - N/A   Clear
1:53 PM 57.2 °F - 35.6 °F 44% 30.39 in 10.0 mi West 10.4 mph - N/A   Clear
2:13 PM 59.0 °F - 35.6 °F 42% 30.39 in 10.0 mi NW 8.1 mph - N/A   Clear
2:33 PM 59.0 °F - 35.6 °F 42% 30.39 in 10.0 mi SW 3.5 mph - N/A   Clear
2:53 PM 59.0 °F - 35.6 °F 42% 30.38 in 10.0 mi Calm Calm - N/A   Clear
3:13 PM 59.0 °F - 35.6 °F 42% 30.37 in 10.0 mi SSW 3.5 mph - N/A   Clear
3:33 PM 59.0 °F - 33.8 °F 39% 30.37 in 10.0 mi West 6.9 mph - N/A   Clear
3:53 PM 59.0 °F - 33.8 °F 39% 30.37 in 10.0 mi Calm Calm - N/A   Clear
4:13 PM 60.8 °F - 35.6 °F 39% 30.37 in 10.0 mi West 3.5 mph - N/A   Clear
4:33 PM 59.0 °F - 35.6 °F 42% 30.37 in 10.0 mi West 3.5 mph - N/A   Clear
4:53 PM 59.0 °F - 33.8 °F 39% 30.37 in 10.0 mi NW 5.8 mph - N/A   Clear
5:13 PM 59.0 °F - 33.8 °F 39% 30.37 in 10.0 mi West 3.5 mph - N/A   Clear
5:33 PM 57.2 °F - 33.8 °F 41% 30.37 in 10.0 mi Calm Calm - N/A   Clear
5:53 PM 57.2 °F - 32.0 °F 38% 30.37 in 10.0 mi Calm Calm - N/A   Clear
6:13 PM 55.4 °F - 35.6 °F 47% 30.37 in 10.0 mi Calm Calm - N/A   Clear
6:33 PM 51.8 °F - 35.6 °F 54% 30.37 in 10.0 mi Calm Calm - N/A   Clear
6:53 PM 48.2 °F - 37.4 °F 66% 30.38 in 10.0 mi Calm Calm - N/A   Clear
7:13 PM 46.4 °F - 37.4 °F 71% 30.38 in 10.0 mi Calm Calm - N/A   Clear
7:33 PM 44.6 °F - 37.4 °F 76% 30.38 in 10.0 mi Calm Calm - N/A   Clear
7:53 PM 42.8 °F - 37.4 °F 81% 30.38 in 10.0 mi Calm Calm - N/A   Clear
8:13 PM 42.8 °F - 37.4 °F 81% 30.38 in 10.0 mi Calm Calm - N/A   Clear
8:33 PM 42.8 °F - 37.4 °F 81% 30.39 in 10.0 mi Calm Calm - N/A   Clear
8:53 PM 42.8 °F - 37.4 °F 81% 30.39 in 10.0 mi Calm Calm - N/A   Clear
9:13 PM 42.8 °F - 37.4 °F 81% 30.39 in 10.0 mi Calm Calm - N/A   Clear
9:33 PM 41.0 °F - 37.4 °F 87% 30.39 in 10.0 mi Calm Calm - N/A   Clear
9:53 PM 39.2 °F - 37.4 °F 93% 30.39 in 10.0 mi Calm Calm - N/A   Clear
10:13 PM 39.2 °F - 37.4 °F 93% 30.39 in 10.0 mi Calm Calm - N/A   Clear
10:33 PM 39.2 °F - 37.4 °F 93% 30.38 in 10.0 mi Calm Calm - N/A   Clear
10:53 PM 39.2 °F - 37.4 °F 93% 30.38 in 10.0 mi Calm Calm - N/A   Clear
11:13 PM 39.2 °F - 37.4 °F 93% 30.39 in 10.0 mi Calm Calm - N/A   Clear
11:33 PM 37.4 °F - 35.6 °F 93% 30.39 in 10.0 mi Calm Calm - N/A   Clear
11:53 PM 37.4 °F - 35.6 °F 93% 30.39 in 10.0 mi Calm Calm - N/A   Clear